一网星座-0024星 (ONEWEB-0024 )

导读

ONEWEB-0024是英国GB发射的一颗卫星,于2020年2月6日8时升空。它属于OneWeb低轨卫星互联网星座成员,该星座旨在构建全球覆盖的高速卫星网络,为偏远地区、航空航海等场景提供互联网接入服务,ONEWEB-0024的成功发射是OneWeb星座部署进程中的重要一步,推动了全球卫星互联网基础设施的建设。

Basic Information
目录编号:
45137
目录名称:
ONEWEB-0024
国际标识:
2020-008G
轨道中心:
EARTH
卫星名称:
一网星座-0024星
卫星全名:
一网星座-0024星 (ONEWEB-0024 )
卫星状态:
在轨 (已飞行2409 天)
发射日期:
2020-02-06 UTC
国别 :
英国 (GB)
星等 :
--
This satellite is enrolled in the Space Conjunction Data Service (SCDS) and the current flight risk assessment level is: No High Risk
Orbit Information
数据来源 国际轨道数据 AOE轨道数据
星历时间 2026-09-11T15:52:20+0800
5小时前
查看轨道信息
2026-09-07T06:00:00+0800
4天前
查看轨道信息
半长轴 7599.845km 7599.871km
偏心率 0.0001726 0.0001925
轨道倾角 87.891° 87.889°
近地点辐角 97.135° 103.690°
升交点赤经 19.112° 19.987°
平近点角 262.997° 338.448°
近地点 1220.396km 1220.271km
远地点 1223.02km 1223.197km
周期 109.892分钟 109.893分钟
每日圈数 13.103753 13.103687
Detailed Information
平衡模式:
三轴稳定
覆盖范围:
全球
运营商:
一网卫星公司
运营商所在国:
英国
制造商(研发单位):
空客防务与航天公司
制造商所在国:
法国大都会
使用方式:
暂无
Satellite Introduction
OneWeb卫星网络由648颗重约125公斤的微型卫星组成,运行在1200公里的轨道上。 每颗卫星都能够提供至少每秒8千兆位的吞吐量,以使用其高吞吐量的Ku频段有效载荷为家庭和移动平台提供互联网接入。该卫星仍在工作。
2D Orbit Map
3D Orbit Map
Orbit Altitude Analysis Chart
Orbit Inclination Analysis Chart
Orbit Comprehensive Analysis Chart
View Comprehensive Chart
Miss Distance Evolution Trend with All Objects
Collision Probability Evolution Trend with All Objects